Time,TemperatureF,DewpointF,PressureIn,WindDirection,WindDirectionDegrees,WindSpeedMPH,WindSpeedGustMPH,Humidity,HourlyPrecipIn,Conditions,Clouds,dailyrainin,SoftwareType,DateUTC
2013-01-14 00:03:00,24.4,19.0,30.14,NW,318,4.0,11.0,81,0.00,,,0.00,weatherlink.com 1.10,2013-01-14 05:03:00,
2013-01-14 00:18:00,24.2,19.0,30.15,WNW,285,4.0,11.0,80,0.00,,,0.00,weatherlink.com 1.10,2013-01-14 05:18:00,
2013-01-14 00:33:00,24.0,19.0,30.15,WNW,300,4.0,12.0,80,0.00,,,0.00,weatherlink.com 1.10,2013-01-14 05:33:00,
2013-01-14 00:48:00,23.9,19.0,30.15,West,267,4.0,11.0,81,0.00,,,0.00,weatherlink.com 1.10,2013-01-14 05:48:00,
2013-01-14 01:03:00,23.6,19.0,30.16,WNW,287,4.0,14.0,81,0.00,,,0.00,weatherlink.com 1.10,2013-01-14 06:03:00,
2013-01-14 01:18:00,23.2,19.0,30.18,NW,321,4.0,16.0,82,0.00,,,0.00,weatherlink.com 1.10,2013-01-14 06:18:00,
2013-01-14 01:34:00,22.9,19.0,30.18,WNW,285,6.0,12.0,83,0.00,,,0.00,weatherlink.com 1.10,2013-01-14 06:34:00,
2013-01-14 01:49:00,22.4,18.0,30.19,WNW,293,4.0,15.0,83,0.00,,,0.00,weatherlink.com 1.10,2013-01-14 06:49:00,
2013-01-14 02:04:00,21.9,17.0,30.21,WNW,288,2.0,15.0,82,0.00,,,0.00,weatherlink.com 1.10,2013-01-14 07:04:00,
2013-01-14 02:19:00,21.5,17.0,30.21,West,281,12.0,12.0,82,0.00,,,0.00,weatherlink.com 1.10,2013-01-14 07:19:00,
2013-01-14 02:34:00,21.6,17.0,30.22,WNW,291,3.0,10.0,83,0.00,,,0.00,weatherlink.com 1.10,2013-01-14 07:34:00,
2013-01-14 02:49:00,21.5,17.0,30.23,WSW,240,10.0,16.0,81,0.00,,,0.00,weatherlink.com 1.10,2013-01-14 07:49:00,
2013-01-14 03:04:00,21.5,17.0,30.23,WNW,290,6.0,12.0,81,0.00,,,0.00,weatherlink.com 1.10,2013-01-14 08:04:00,
2013-01-14 03:19:00,21.6,17.0,30.25,WNW,295,5.0,9.0,82,0.00,,,0.00,weatherlink.com 1.10,2013-01-14 08:19:00,
2013-01-14 03:34:00,21.3,16.0,30.26,WNW,295,6.0,13.0,81,0.00,,,0.00,weatherlink.com 1.10,2013-01-14 08:34:00,
2013-01-14 03:49:00,21.3,17.0,30.27,WSW,249,2.0,10.0,84,0.00,,,0.00,weatherlink.com 1.10,2013-01-14 08:49:00,
2013-01-14 04:04:00,21.2,17.0,30.28,NW,311,2.0,8.0,85,0.00,,,0.00,weatherlink.com 1.10,2013-01-14 09:04:00,
2013-01-14 04:19:00,20.8,17.0,30.28,West,279,4.0,12.0,84,0.00,,,0.00,weatherlink.com 1.10,2013-01-14 09:19:00,
2013-01-14 04:34:00,20.7,17.0,30.29,WNW,285,0.0,7.0,86,0.00,,,0.00,weatherlink.com 1.10,2013-01-14 09:34:00,
2013-01-14 04:49:00,20.7,17.0,30.30,SSW,198,1.0,9.0,85,0.00,,,0.00,weatherlink.com 1.10,2013-01-14 09:49:00,
2013-01-14 05:04:00,20.6,17.0,30.31,WNW,283,4.0,7.0,86,0.00,,,0.00,weatherlink.com 1.10,2013-01-14 10:04:00,
2013-01-14 05:19:00,20.4,17.0,30.31,WNW,291,1.0,7.0,86,0.00,,,0.00,weatherlink.com 1.10,2013-01-14 10:19:00,
2013-01-14 05:34:00,20.2,17.0,30.31,West,259,2.0,8.0,86,0.00,,,0.00,weatherlink.com 1.10,2013-01-14 10:34:00,
2013-01-14 05:49:00,20.1,16.0,30.32,WSW,255,0.0,5.0,85,0.00,,,0.00,weatherlink.com 1.10,2013-01-14 10:49:00,
2013-01-14 06:04:00,20.2,17.0,30.32,WNW,286,3.0,6.0,86,0.00,,,0.00,weatherlink.com 1.10,2013-01-14 11:04:00,
2013-01-14 06:19:00,20.3,17.0,30.33,WNW,283,1.0,8.0,86,0.00,,,0.00,weatherlink.com 1.10,2013-01-14 11:19:00,
2013-01-14 06:35:00,20.5,17.0,30.34,West,277,0.0,6.0,86,0.00,,,0.00,weatherlink.com 1.10,2013-01-14 11:35:00,
2013-01-14 06:50:00,20.6,17.0,30.34,West,266,0.0,7.0,86,0.00,,,0.00,weatherlink.com 1.10,2013-01-14 11:50:00,
2013-01-14 07:05:00,20.5,17.0,30.35,SW,218,0.0,5.0,86,0.00,,,0.00,weatherlink.com 1.10,2013-01-14 12:05:00,
2013-01-14 07:20:00,20.7,17.0,30.36,WNW,291,0.0,4.0,86,0.00,,,0.00,weatherlink.com 1.10,2013-01-14 12:20:00,
2013-01-14 07:35:00,20.9,17.0,30.37,West,263,1.0,4.0,86,0.00,,,0.00,weatherlink.com 1.10,2013-01-14 12:35:00,
2013-01-14 07:50:00,21.1,17.0,30.38,WSW,253,1.0,6.0,85,0.00,,,0.00,weatherlink.com 1.10,2013-01-14 12:50:00,
2013-01-14 08:08:00,21.2,18.0,30.39,NW,326,0.0,4.0,86,0.00,,,0.00,weatherlink.com 1.10,2013-01-14 13:08:00,
2013-01-14 08:20:00,21.2,17.0,30.39,NW,304,4.0,6.0,84,0.00,,,0.00,weatherlink.com 1.10,2013-01-14 13:20:00,
2013-01-14 08:35:00,21.3,17.0,30.41,West,270,2.0,7.0,83,0.00,,,0.00,weatherlink.com 1.10,2013-01-14 13:35:00,
2013-01-14 08:50:00,21.5,17.0,30.42,NNW,335,2.0,6.0,82,0.00,,,0.00,weatherlink.com 1.10,2013-01-14 13:50:00,
2013-01-14 09:05:00,21.7,17.0,30.43,NW,326,2.0,7.0,81,0.00,,,0.00,weatherlink.com 1.10,2013-01-14 14:05:00,
2013-01-14 09:20:00,21.7,16.0,30.44,NW,322,0.0,7.0,80,0.00,,,0.00,weatherlink.com 1.10,2013-01-14 14:20:00,
2013-01-14 09:35:00,21.8,17.0,30.44,NW,316,2.0,6.0,82,0.00,,,0.00,weatherlink.com 1.10,2013-01-14 14:35:00,
2013-01-14 09:50:00,21.8,17.0,30.44,WNW,288,2.0,7.0,82,0.00,,,0.00,weatherlink.com 1.10,2013-01-14 14:50:00,
2013-01-14 10:05:00,22.0,17.0,30.44,WNW,287,2.0,9.0,81,0.00,,,0.00,weatherlink.com 1.10,2013-01-14 15:05:00,
2013-01-14 10:20:00,22.3,17.0,30.43,North,349,0.0,9.0,80,0.00,,,0.00,weatherlink.com 1.10,2013-01-14 15:20:00,
2013-01-14 10:35:00,22.3,17.0,30.43,WNW,300,3.0,8.0,79,0.00,,,0.00,weatherlink.com 1.10,2013-01-14 15:35:00,
2013-01-14 10:50:00,22.3,17.0,30.43,NW,316,2.0,8.0,80,0.00,,,0.00,weatherlink.com 1.10,2013-01-14 15:50:00,
2013-01-14 11:05:00,22.4,17.0,30.43,NW,322,0.0,7.0,79,0.00,,,0.00,weatherlink.com 1.10,2013-01-14 16:05:00,
2013-01-14 11:20:00,22.3,16.0,30.42,WNW,298,4.0,12.0,78,0.00,,,0.00,weatherlink.com 1.10,2013-01-14 16:20:00,
2013-01-14 11:35:00,22.5,17.0,30.42,WNW,290,4.0,9.0,79,0.00,,,0.00,weatherlink.com 1.10,2013-01-14 16:35:00,
2013-01-14 11:50:00,22.5,17.0,30.41,WNW,295,4.0,8.0,78,0.00,,,0.00,weatherlink.com 1.10,2013-01-14 16:50:00,
2013-01-14 12:05:00,22.4,17.0,30.41,NNW,330,0.0,5.0,78,0.00,,,0.00,weatherlink.com 1.10,2013-01-14 17:05:00,
2013-01-14 12:20:00,22.6,17.0,30.41,NW,310,0.0,7.0,78,0.00,,,0.00,weatherlink.com 1.10,2013-01-14 17:20:00,
2013-01-14 12:35:00,22.9,17.0,30.40,NNW,338,1.0,6.0,77,0.00,,,0.00,weatherlink.com 1.10,2013-01-14 17:35:00,
2013-01-14 12:50:00,23.2,17.0,30.41,WNW,290,4.0,4.0,77,0.00,,,0.00,weatherlink.com 1.10,2013-01-14 17:50:00,
2013-01-14 13:05:00,23.2,17.0,30.40,WNW,297,5.0,5.0,76,0.00,,,0.00,weatherlink.com 1.10,2013-01-14 18:05:00,
2013-01-14 13:20:00,24.3,18.0,30.40,NW,312,0.0,3.0,77,0.00,,,0.00,weatherlink.com 1.10,2013-01-14 18:20:00,
2013-01-14 13:35:00,24.8,18.0,30.40,WNW,301,0.0,3.0,74,0.00,,,0.00,weatherlink.com 1.10,2013-01-14 18:35:00,
2013-01-14 13:50:00,25.0,17.0,30.40,NW,314,0.0,3.0,73,0.00,,,0.00,weatherlink.com 1.10,2013-01-14 18:50:00,
2013-01-14 14:05:00,24.3,17.0,30.40,NNW,332,2.0,4.0,74,0.00,,,0.00,weatherlink.com 1.10,2013-01-14 19:05:00,
2013-01-14 14:20:00,24.5,18.0,30.41,West,263,0.0,4.0,75,0.00,,,0.00,weatherlink.com 1.10,2013-01-14 19:20:00,
2013-01-14 14:36:00,25.2,17.0,30.42,NNW,336,2.0,4.0,72,0.00,,,0.00,weatherlink.com 1.10,2013-01-14 19:36:00,
2013-01-14 14:51:00,25.5,18.0,30.43,WSW,256,0.0,3.0,72,0.00,,,0.00,weatherlink.com 1.10,2013-01-14 19:51:00,
2013-01-14 15:08:00,25.4,17.0,30.44,West,266,3.0,7.0,71,0.00,,,0.00,weatherlink.com 1.10,2013-01-14 20:08:00,
2013-01-14 15:21:00,25.2,18.0,30.45,West,264,2.0,6.0,73,0.00,,,0.00,weatherlink.com 1.10,2013-01-14 20:21:00,
2013-01-14 15:36:00,24.9,18.0,30.44,West,260,3.0,6.0,74,0.00,,,0.00,weatherlink.com 1.10,2013-01-14 20:36:00,
2013-01-14 15:51:00,25.0,17.0,30.45,West,260,2.0,6.0,72,0.00,,,0.00,weatherlink.com 1.10,2013-01-14 20:51:00,
2013-01-14 16:06:00,25.1,17.0,30.45,West,281,3.0,6.0,72,0.00,,,0.00,weatherlink.com 1.10,2013-01-14 21:06:00,
2013-01-14 16:21:00,25.0,17.0,30.45,WNW,301,1.0,8.0,73,0.00,,,0.00,weatherlink.com 1.10,2013-01-14 21:21:00,
2013-01-14 16:36:00,24.8,18.0,30.45,WNW,291,0.0,4.0,74,0.00,,,0.00,weatherlink.com 1.10,2013-01-14 21:36:00,
2013-01-14 16:51:00,24.5,17.0,30.46,NW,309,4.0,6.0,73,0.00,,,0.00,weatherlink.com 1.10,2013-01-14 21:51:00,
2013-01-14 17:06:00,24.4,17.0,30.46,West,278,0.0,4.0,74,0.00,,,0.00,weatherlink.com 1.10,2013-01-14 22:06:00,
2013-01-14 17:21:00,24.3,17.0,30.46,West,276,0.0,2.0,74,0.00,,,0.00,weatherlink.com 1.10,2013-01-14 22:21:00,
2013-01-14 17:36:00,23.8,17.0,30.46,WSW,246,0.0,2.0,74,0.00,,,0.00,weatherlink.com 1.10,2013-01-14 22:36:00,
2013-01-14 17:51:00,23.4,16.0,30.46,SW,236,0.0,2.0,74,0.00,,,0.00,weatherlink.com 1.10,2013-01-14 22:51:00,
2013-01-14 18:06:00,23.1,17.0,30.46,WSW,257,0.0,0.0,76,0.00,,,0.00,weatherlink.com 1.10,2013-01-14 23:06:00,
2013-01-14 18:21:00,22.6,17.0,30.45,WSW,246,0.0,0.0,78,0.00,,,0.00,weatherlink.com 1.10,2013-01-14 23:21:00,
2013-01-14 18:36:00,22.0,17.0,30.45,WSW,248,0.0,0.0,80,0.00,,,0.00,weatherlink.com 1.10,2013-01-14 23:36:00,
2013-01-14 18:51:00,21.4,16.0,30.45,WSW,248,0.0,0.0,80,0.00,,,0.00,weatherlink.com 1.10,2013-01-14 23:51:00,
2013-01-14 19:06:00,20.6,16.0,30.45,SW,236,0.0,0.0,82,0.00,,,0.00,weatherlink.com 1.10,2013-01-15 00:06:00,
2013-01-14 19:21:00,20.0,16.0,30.45,SW,236,0.0,0.0,84,0.00,,,0.00,weatherlink.com 1.10,2013-01-15 00:21:00,
2013-01-14 19:36:00,19.5,16.0,30.45,SW,236,0.0,0.0,85,0.00,,,0.00,weatherlink.com 1.10,2013-01-15 00:36:00,
2013-01-14 19:51:00,19.0,15.0,30.45,SW,236,0.0,0.0,85,0.00,,,0.00,weatherlink.com 1.10,2013-01-15 00:51:00,
2013-01-14 20:06:00,18.5,15.0,30.44,SW,236,0.0,0.0,86,0.00,,,0.00,weatherlink.com 1.10,2013-01-15 01:06:00,
2013-01-14 20:36:00,18.3,15.0,30.45,SW,225,0.0,0.0,86,0.00,,,0.00,weatherlink.com 1.10,2013-01-15 01:36:00,
2013-01-14 20:51:00,18.3,15.0,30.45,SW,225,0.0,0.0,87,0.00,,,0.00,weatherlink.com 1.10,2013-01-15 01:51:00,
2013-01-14 21:06:00,18.5,15.0,30.45,SSW,194,0.0,0.0,87,0.00,,,0.00,weatherlink.com 1.10,2013-01-15 02:06:00,
2013-01-14 21:21:00,18.6,15.0,30.44,SE,136,0.0,0.0,87,0.00,,,0.00,weatherlink.com 1.10,2013-01-15 02:21:00,
2013-01-14 21:36:00,18.7,15.0,30.44,SSE,156,0.0,0.0,86,0.00,,,0.00,weatherlink.com 1.10,2013-01-15 02:36:00,
2013-01-14 21:51:00,18.7,15.0,30.44,SSE,158,0.0,0.0,86,0.00,,,0.00,weatherlink.com 1.10,2013-01-15 02:51:00,
2013-01-14 22:06:00,18.4,15.0,30.43,SSE,158,0.0,0.0,86,0.00,,,0.00,weatherlink.com 1.10,2013-01-15 03:06:00,
2013-01-14 22:21:00,17.8,14.0,30.43,South,172,0.0,0.0,86,0.00,,,0.00,weatherlink.com 1.10,2013-01-15 03:21:00,
2013-01-14 22:36:00,17.4,14.0,30.43,South,172,0.0,0.0,87,0.00,,,0.00,weatherlink.com 1.10,2013-01-15 03:36:00,
2013-01-14 22:51:00,16.9,14.0,30.43,South,172,0.0,0.0,87,0.00,,,0.00,weatherlink.com 1.10,2013-01-15 03:51:00,
2013-01-14 23:08:00,16.8,14.0,30.44,South,171,0.0,0.0,87,0.00,,,0.00,weatherlink.com 1.10,2013-01-15 04:08:00,
2013-01-14 23:21:00,17.2,14.0,30.43,South,172,0.0,0.0,87,0.00,,,0.00,weatherlink.com 1.10,2013-01-15 04:21:00,
2013-01-14 23:36:00,17.1,14.0,30.43,South,172,0.0,0.0,87,0.00,,,0.00,weatherlink.com 1.10,2013-01-15 04:36:00,
2013-01-14 23:51:00,16.6,13.0,30.43,South,172,0.0,0.0,87,0.00,,,0.00,weatherlink.com 1.10,2013-01-15 04:51:00,